This demonstration page uses our WeatherBlox Daily Observations layout. Learn more.

Left ArrowRight Arrow

41.86663, -103.66717

Hourly Observations for July 19, 2020

Temp ( °F °C ) Dew Point ( °F °C ) Humidity (%) Winds ( mph kmh ) Pressure ( in mb ) Visibility ( mi km ) Precip ( " mm )
12:53 am 00:53 Clear 66 18.9 58 14.4 75 75 ESE 6 9 29.94 1014 10 16 N/A
1:53 am 01:53 Clear 65 18.3 59 15 81 81 E 7 11 29.95 1014 10 16 N/A
2:53 am 02:53 Clear 65 18.3 59 15 81 81 E 6 9 29.96 1015 10 16 N/A
3:53 am 03:53 Mostly Cloudy 65 18.3 60 15.6 84 84 ESE 6 9 29.98 1015 10 16 N/A
4:53 am 04:53 Mostly Clear 64 17.8 60 15.6 87 87 ENE 6 9 29.96 1015 10 16 N/A
5:53 am 05:53 Sunny 62 16.7 59 15 90 90 E 6 9 29.96 1015 10 16 N/A
6:53 am 06:53 Sunny 65 18.3 61 16.1 87 87 undefined N/A 29.96 1015 10 16 N/A
7:30 am 07:30 Mostly Cloudy 68 20 61 16.1 78 78 SE 9 15 29.92 1013 10 16 N/A
7:53 am 07:53 Cloudy 68 20 61 16.1 78 78 SE 12 19 29.96 1015 10 16 N/A
8:53 am 08:53 Cloudy 69 20.6 62 16.7 78 78 E 15 24 29.97 1015 10 16 N/A
9:11 am 09:11 Mostly Cloudy 72 22.2 63 17.2 73 73 E 15 24 29.86 1011 10 16 N/A
9:53 am 09:53 Sunny 73 22.8 64 17.8 74 74 E 17 28 29.95 1014 10 16 N/A
10:53 am 10:53 Sunny 78 25.6 65 18.3 64 64 ESE 16 26 29.93 1014 10 16 N/A
11:53 am 11:53 Sunny 81 27.2 66 18.9 61 61 E 15 24 29.91 1013 10 16 N/A
12:53 pm 12:53 Sunny 83 28.3 65 18.3 55 55 E 16 26 29.89 1012 10 16 N/A
1:53 pm 13:53 Sunny 85 29.4 66 18.9 53 53 E 16 26 29.86 1011 10 16 N/A
2:53 pm 14:53 Sunny 87 30.6 66 18.9 50 50 E 17 28 29.83 1010 10 16 N/A
3:53 pm 15:53 Sunny 89 31.7 64 17.8 43 43 E 15 24 29.80 1009 10 16 N/A
4:53 pm 16:53 Sunny 91 32.8 63 17.2 39 39 ESE 18 30 29.79 1009 10 16 N/A
5:31 pm 17:31 Sunny with Nearby Thunderstorms 87 30.6 62 16.7 43 43 ESE 17 28 29.59 1002 10 16 N/A
5:49 pm 17:49 Sunny with Thunderstorms 86 30 63 17 46 46 SSE 14 22 29.64 1004 10 16 N/A
5:53 pm 17:53 Sunny with Thunderstorms 83 28.3 61 16.1 48 48 S 24 39 29.84 1010 10 16 N/A
6:00 pm 18:00 Windy with Storms Likely 79 26 63 17 58 58 SSE 23 37 29.67 1005 10 16 N/A
6:20 pm 18:20 Partly Cloudy with Nearby Thunderstorms 73 23 64 18 74 74 E 21 33 29.69 1005 10 16 N/A
6:35 pm 18:35 Sunny 75 23.9 62 16.7 64 64 SE 15 24 29.66 1004 10 16 0.00 0.00
6:53 pm 18:53 Sunny 77 25 63 17.2 62 62 E 14 22 29.79 1009 10 16 0.00 0.00
7:03 pm 19:03 Mostly Sunny 79 26.1 63 17.2 58 58 E 13 20 29.67 1005 10 16 N/A
7:53 pm 19:53 Mostly Cloudy 77 25 63 17.2 62 62 SSE 5 7 29.82 1010 10 16 N/A
8:53 pm 20:53 Mostly Clear 73 22.8 60 15.6 64 64 ESE 9 15 29.80 1009 10 16 0.00 0.00
9:53 pm 21:53 Partly Cloudy 74 23.3 58 14.4 57 57 SE 12 19 29.84 1011 10 16 N/A
10:53 pm 22:53 Clear 71 21.7 64 17.8 79 79 ENE 22 35 29.88 1012 10 16 N/A
11:01 pm 23:01 Clear with Nearby Thunderstorms 71 21.7 64 17.8 79 79 E 17 28 29.81 1009 10 16 N/A
11:42 pm 23:42 Clear 68 20 59 15 73 73 E 10 17 29.86 1011 10 16 N/A
11:53 pm 23:53 Clear 67 19.4 57 13.9 71 71 E 15 24 29.91 1013 10 16 N/A

Powered by AerisWeather